[[{"header":{"parameterUnit":"m.s-1","parameterCategory":1,"la1":30.2992,"la2":30.254,"lo1":-89.0895,"lo2":-89.0443,"dy":0.0025,"dx":0.0025,"nx":19,"ny":19,"refTime":"2026-04-26T21:00:00:Z","depth":0,"parameterNumber":2,"parameterNumberName":"U-component_of_WINDS"},"data":[0,0,0,-1.2948,-1.295,-1.3039,-1.3039,-1.316,-1.3161,0,0,0,0,0,0,0,0,0,0,0,-1.2924,-1.2925,-1.2948,-1.295,-1.3039,-1.3039,-1.3159,-1.3161,0,0,0,0,0,0,0,0,0,0,0,-1.2924,-1.2925,-1.2926,-1.295,-1.3039,-1.3039,-1.3159,-1.309,0,0,0,0,0,0,0,0,0,0,-1.3003,-1.2983,-1.2925,-1.2926,-1.2951,-1.3039,-1.3039,-1.3087,-1.3094,-1.3122,0,-1.3146,0,-1.3155,-1.3169,-1.3169,0,0,0,-1.2948,-1.2977,-1.2998,-1.2926,-1.2952,-1.3039,-1.2998,-1.3091,-1.31,-1.3132,-1.3147,-1.3152,-1.3157,-1.317,-1.317,-1.3331,-1.3332,0,0,-1.2944,-1.2942,-1.2992,-1.3004,-1.2989,-1.2995,-1.3001,-1.3096,-1.3113,-1.3148,-1.3154,-1.3159,-1.3171,-1.3172,-1.333,-1.3331,0,0,0,-1.2931,-1.2939,-1.2958,-1.2999,-1.3014,-1.2998,-1.3005,-1.3109,-1.3115,-1.3156,-1.316,-1.3171,-1.3173,-1.3329,-1.333,-1.3369,0,0,0,-1.2927,-1.2931,-1.2956,-1.2956,-1.3013,-1.3062,-1.3015,-1.3108,-1.3119,-1.316,-1.3171,-1.3174,-1.3328,-1.333,-1.3366,-1.3388,0,0,0,-1.2918,-1.293,-1.2943,-1.2955,-1.2993,-1.3061,-1.3073,-1.3111,-1.3122,-1.317,-1.3174,-1.3328,-1.3329,-1.3363,-1.3383,-1.3429,0,0,0,-1.2907,-1.2977,-1.2944,-1.3025,-1.2993,-1.3084,-1.3072,-1.314,-1.3185,-1.3172,-1.3328,-1.333,-1.3362,-1.3381,-1.3426,-1.3468,-1.3484,0,0,-1.2995,-1.2988,-1.3035,-1.3008,-1.3105,-1.307,-1.3173,-1.3217,-1.3223,-1.3295,-1.3299,-1.3367,-1.3383,-1.3429,-1.358,-1.3594,0,0,0,-1.3063,-1.3097,-1.3123,-1.3165,-1.3199,-1.323,-1.3258,-1.3274,-1.3335,-1.3259,-1.3396,-1.3406,-1.3433,-1.3452,-1.3464,-1.3487,-1.3339,-1.3339,-1.3339,-1.3185,-1.3189,-1.3268,-1.3282,-1.3324,-1.3351,-1.3386,-1.3412,-1.3405,-1.3437,-1.3458,-1.355,-1.3573,-1.3581,-1.3606,-1.3481,-1.3481,-1.3481,-1.3481,-1.3315,-1.3363,-1.3351,-1.3423,-1.3427,-1.3488,-1.3518,-1.3511,-1.3569,-1.3534,-1.3558,-1.3519,-1.3596,-1.3617,-1.3484,-1.3483,-1.3483,-1.3483,-1.3483,-1.3395,-1.3419,-1.3437,-1.3498,-1.3545,-1.3558,-1.3615,-1.3617,-1.3619,-1.3643,-1.3666,-1.3665,-1.3665,-1.3653,-1.3654,-1.3654,-1.3654,-1.3655,-1.3655,-1.3471,-1.349,-1.3536,-1.3578,-1.3606,-1.3642,-1.3671,-1.3699,-1.373,-1.3727,-1.3727,-1.3717,-1.3603,-1.3574,-1.366,-1.3659,-1.3658,-1.3658,-1.3657,-1.3601,-1.3572,-1.3643,-1.3671,-1.372,-1.3767,-1.3769,-1.3825,-1.3849,-1.3876,-1.3861,-1.3776,-1.3769,-1.376,-1.3736,-1.386,-1.386,-1.386,-1.386,-1.3669,-1.3665,-1.3739,-1.3782,-1.3826,-1.3834,-1.3917,-1.394,-1.396,-1.3975,-1.3958,-1.3926,-1.3917,-1.3916,-1.3904,-1.3881,-1.4039,-1.4039,-1.4039,-1.3749,-1.3749,-1.3818,-1.3836,-1.3875,-1.3909,-1.3986,-1.4038,-1.4055,-1.4046,-1.3987,-1.3979,-1.3929,-1.3912,-1.3901,-1.3882,-1.3841,0,0]},{"header":{"parameterUnit":"m.s-1","parameterCategory":1,"la1":30.2992,"la2":30.254,"lo1":-89.0895,"lo2":-89.0443,"dy":0.0025,"dx":0.0025,"nx":19,"ny":19,"refTime":"2026-04-26T21:00:00:Z","depth":0,"parameterNumber":3,"parameterNumberName":"V-component_of_WINDS"},"data":[0,0,0,2.3755,2.3755,2.3758,2.3758,2.3757,2.3757,0,0,0,0,0,0,0,0,0,0,0,2.3752,2.3752,2.3755,2.3755,2.3758,2.3758,2.3757,2.3757,0,0,0,0,0,0,0,0,0,0,0,2.3752,2.3752,2.3752,2.3755,2.3758,2.3758,2.3757,2.3757,0,0,0,0,0,0,0,0,0,0,2.3754,2.3749,2.3752,2.3752,2.3755,2.3758,2.3758,2.3757,2.3757,2.3754,0,2.3752,0,2.3755,2.3757,2.3757,0,0,0,2.3757,2.3749,2.3752,2.3752,2.3755,2.3758,2.3757,2.3757,2.3757,2.3754,2.3752,2.3752,2.3755,2.3757,2.3757,2.374,2.374,0,0,2.3757,2.3751,2.3752,2.3752,2.3752,2.3757,2.3757,2.3757,2.3753,2.3752,2.3752,2.3755,2.3757,2.3757,2.374,2.374,0,0,0,2.3755,2.375,2.3754,2.3752,2.3753,2.3757,2.3758,2.3753,2.3755,2.3752,2.3755,2.3757,2.3757,2.374,2.374,2.3727,0,0,0,2.3755,2.375,2.3754,2.375,2.3753,2.3753,2.3754,2.3755,2.3755,2.3755,2.3757,2.3757,2.3741,2.374,2.3728,2.3721,0,0,0,2.3752,2.3749,2.3749,2.375,2.3751,2.3753,2.3755,2.3755,2.3757,2.3757,2.3757,2.3741,2.374,2.3729,2.3722,2.3716,0,0,0,2.3747,2.3736,2.3749,2.3738,2.3751,2.3746,2.3755,2.3752,2.375,2.3757,2.3741,2.374,2.3729,2.3723,2.3716,2.3708,2.3704,0,0,2.373,2.3734,2.3728,2.3739,2.3731,2.3746,2.3736,2.3739,2.3744,2.3741,2.3741,2.3728,2.3723,2.3716,2.3687,2.3684,0,0,0,2.372,2.3716,2.3715,2.3714,2.3718,2.3721,2.3727,2.3729,2.3727,2.3742,2.3724,2.3721,2.3717,2.3714,2.3711,2.3708,2.3739,2.3739,2.3739,2.3684,2.3694,2.3684,2.3694,2.3694,2.3702,2.3703,2.3706,2.3714,2.371,2.3708,2.369,2.3686,2.3684,2.3681,2.3706,2.3705,2.3705,2.3705,2.3658,2.3653,2.3667,2.3663,2.3673,2.3669,2.3678,2.3684,2.3682,2.3691,2.3688,2.3697,2.368,2.3678,2.3705,2.3705,2.3705,2.3705,2.3705,2.3635,2.3634,2.3638,2.364,2.3641,2.3652,2.365,2.3659,2.3667,2.3665,2.3664,2.3664,2.3665,2.3664,2.3664,2.3664,2.3664,2.3664,2.3664,2.3608,2.3613,2.3611,2.3617,2.3619,2.3623,2.3634,2.3636,2.3641,2.3647,2.3647,2.3655,2.3678,2.3682,2.3663,2.3663,2.3663,2.3663,2.3663,2.3575,2.3585,2.3582,2.3584,2.3593,2.3594,2.3607,2.3611,2.3614,2.3613,2.3624,2.3639,2.3643,2.3645,2.3649,2.3622,2.3622,2.3622,2.3622,2.3554,2.3559,2.3559,2.3562,2.3567,2.3579,2.3576,2.3586,2.3596,2.3599,2.3605,2.3612,2.3614,2.3616,2.3619,2.3623,2.359,2.359,2.359,2.3535,2.3541,2.3535,2.3548,2.3557,2.3564,2.3561,2.3565,2.3579,2.3589,2.3602,2.3603,2.3614,2.3617,2.3623,2.3628,2.3635,0,0]}]]